Date String (YYYY-MM-DD hh:mm:ss) UTC,Instrument flags,Ambient pressure (hPa),Sample flow (lpm),Bypass flow (lpm),Sample temperature (°C),Ambient temperature (°C),ASC tube jacket temperature (°C),LED temperature (°C),Box temperature (°C),Sample RH (%),Span deviation,Mass concentration (μg/m³),Mass concentration (μg/m³),Mass concentration (μg/m³)
DateTimeUTC,F1_M11,P_M11,Q1_M11,Q2_M11,T1_M11,T2_M11,T3_M11,T4_M11,T5_M11,U1_M11,ZSPAN_M11,X0_M11,X2_M11,X1_M11
2022-10-07 09:00:00,,0837.4,4.99,0.00,29.4,27.7,00.0,38.2,31.2,22.0,-000.7,0038.61,0021.57,0018.53
2022-10-07 09:01:00,,0837.3,5.01,0.00,29.4,27.8,00.0,38.2,31.2,23.0,-000.8,0039.56,0021.55,0018.54
2022-10-07 09:02:00,,0837.4,4.99,0.00,29.4,27.8,00.0,38.2,31.2,23.6,-001.0,0040.10,0021.54,0018.55
2022-10-07 09:03:00,,0837.3,5.00,0.00,29.4,27.8,00.0,38.2,31.2,22.4,-001.1,0040.13,0021.56,0018.56
2022-10-07 09:04:00,,0837.3,4.99,0.00,29.4,27.8,00.0,38.2,31.2,22.1,-000.9,0040.38,0021.67,0018.60
2022-10-07 09:05:00,,0837.3,5.00,0.00,29.4,27.8,00.0,38.2,31.2,22.0,-001.0,0040.16,0021.71,0018.60
2022-10-07 09:06:00,,0837.4,5.00,0.00,29.4,27.8,00.0,38.2,31.2,22.0,-001.3,0040.92,0021.70,0018.64
2022-10-07 09:07:00,,0837.4,4.99,0.00,29.4,27.8,00.0,38.2,31.2,22.0,-001.5,0041.51,0021.82,0018.69
2022-10-07 09:08:00,,0837.4,5.01,0.00,29.4,27.8,00.0,38.2,31.2,21.9,-001.4,0041.15,0021.90,0018.72
2022-10-07 09:09:00,,0837.3,4.99,0.00,29.4,27.8,00.0,38.2,31.2,21.9,-001.5,0041.24,0022.00,0018.75
2022-10-07 09:10:00,,0837.3,5.01,0.00,29.4,27.8,00.0,38.1,31.2,21.9,-001.6,0041.60,0022.09,0018.77
2022-10-07 09:11:00,,0837.4,4.99,0.00,29.4,27.8,00.0,38.1,31.2,21.9,-001.3,0040.87,0022.12,0018.79
2022-10-07 09:12:00,,0837.4,5.01,0.00,29.4,27.8,00.0,38.1,31.2,22.0,-001.4,0039.76,0022.12,0018.83
2022-10-07 09:13:00,,0837.3,5.00,0.00,29.4,27.9,00.0,38.1,31.2,21.9,-001.3,0039.36,0022.17,0018.86
2022-10-07 09:14:00,,0837.3,5.01,0.00,29.4,27.9,00.0,38.1,31.2,22.0,-001.3,0038.93,0022.19,0018.88
2022-10-07 09:15:00,,0837.4,5.00,0.00,29.4,27.9,00.0,38.2,31.2,22.0,-001.3,0037.67,0022.10,0018.89
2022-10-07 09:16:00,,0837.4,5.00,0.00,29.4,27.9,00.0,38.2,31.2,21.9,-001.2,0037.71,0022.16,0018.93
2022-10-07 09:17:00,,0837.4,5.01,0.00,29.4,27.9,00.0,38.2,31.2,21.9,-000.8,0037.67,0022.17,0018.94
2022-10-07 09:18:00,,0837.4,4.99,0.00,29.4,27.9,00.0,38.2,31.2,21.9,-000.6,0037.75,0022.23,0018.97
2022-10-07 09:19:00,,0837.4,5.01,0.00,29.4,27.9,00.0,38.1,31.2,21.9,-000.7,0037.80,0022.27,0019.00
2022-10-07 09:20:00,,0837.4,4.99,0.00,29.4,27.9,00.0,38.1,31.2,21.9,-000.6,0036.87,0022.23,0019.01
2022-10-07 09:21:00,,0837.3,5.02,0.00,29.4,27.9,00.0,38.1,31.2,21.9,-000.7,0036.44,0022.21,0019.05
2022-10-07 09:22:00,,0837.4,4.99,0.00,29.4,27.9,00.0,38.1,31.2,21.9,-001.0,0036.68,0022.24,0019.10
2022-10-07 09:23:00,,0837.3,5.01,0.00,29.4,27.9,00.0,38.1,31.2,21.9,-000.8,0036.70,0022.23,0019.12
2022-10-07 09:24:00,,0837.4,5.00,0.00,29.4,27.9,00.0,38.1,31.2,21.9,-000.6,0036.50,0022.19,0019.12
2022-10-07 09:25:00,,0837.3,4.99,0.00,29.4,27.8,00.0,38.1,31.2,21.9,-000.7,0036.39,0022.16,0019.12
2022-10-07 09:26:00,,0837.4,5.01,0.00,29.4,27.8,00.0,38.2,31.2,21.9,-000.5,0036.69,0022.22,0019.13
2022-10-07 09:27:00,,0837.3,4.98,0.00,29.4,27.8,00.0,38.1,31.2,21.8,-000.5,0037.23,0022.21,0019.13
2022-10-07 09:28:00,,0837.4,5.01,0.00,29.4,27.8,00.0,38.1,31.2,21.8,-000.6,0036.81,0022.23,0019.14
2022-10-07 09:29:00,,0837.4,5.00,0.00,29.4,27.8,00.0,38.1,31.2,21.9,-001.3,0036.31,0022.20,0019.15
2022-10-07 09:30:00,,0837.4,5.00,0.00,29.4,27.7,00.0,38.1,31.2,21.9,-001.8,0035.62,0022.22,0019.16
2022-10-07 09:31:00,,0837.3,5.00,0.00,29.4,27.7,00.0,38.1,31.2,21.8,-001.9,0034.18,0022.13,0019.16
2022-10-07 09:32:00,,0837.3,4.99,0.00,29.4,27.7,00.0,38.1,31.2,21.8,-001.8,0034.97,0022.15,0019.17
2022-10-07 09:33:00,,0837.4,5.01,0.00,29.4,27.7,00.0,38.1,31.2,21.8,-001.4,0036.11,0022.08,0019.12
2022-10-07 09:34:00,,0837.4,5.01,0.00,29.3,27.7,00.0,38.1,31.2,21.8,-001.2,0035.81,0022.09,0019.08
2022-10-07 09:35:00,,0837.3,4.98,0.00,29.3,27.6,00.0,38.1,31.2,21.8,-001.5,0036.42,0022.09,0019.05
2022-10-07 09:36:00,,0837.3,5.01,0.00,29.3,27.7,00.0,38.1,31.2,21.8,-001.5,0037.45,0022.09,0019.01
2022-10-07 09:37:00,,0837.4,4.99,0.00,29.3,27.7,00.0,38.1,31.1,21.8,-001.5,0037.40,0022.05,0018.95
2022-10-07 09:38:00,,0837.3,5.01,0.00,29.3,27.7,00.0,38.1,31.1,21.8,-001.4,0036.59,0021.90,0018.87
2022-10-07 09:39:00,,0837.3,5.01,0.00,29.3,27.7,00.0,38.1,31.1,21.8,-001.3,0036.36,0021.82,0018.80
2022-10-07 09:40:00,,0837.3,4.99,0.00,29.3,27.7,00.0,38.1,31.1,21.8,-001.0,0037.16,0021.76,0018.72
2022-10-07 09:41:00,,0837.3,5.02,0.00,29.3,27.7,00.0,38.1,31.1,21.8,-000.5,0036.85,0021.64,0018.64
2022-10-07 09:42:00,,0837.4,4.99,0.00,29.3,27.7,00.0,38.1,31.1,21.8,-000.1,0036.89,0021.61,0018.59
2022-10-07 09:43:00,,0837.3,5.00,0.00,29.3,27.7,00.0,38.1,31.1,21.8,-000.1,0036.07,0021.52,0018.55
2022-10-07 09:44:00,,0837.4,5.00,0.00,29.3,27.7,00.0,38.1,31.1,21.9,-000.1,0034.64,0021.45,0018.50
2022-10-07 09:45:00,,0837.4,4.99,0.00,29.3,27.7,00.0,38.1,31.1,21.8,-000.1,0035.45,0021.38,0018.43
2022-10-07 09:46:00,,0837.4,5.01,0.00,29.3,27.7,00.0,38.1,31.1,21.8,0000.2,0036.11,0021.31,0018.37
2022-10-07 09:47:00,,0837.4,4.99,0.00,29.3,27.7,00.0,38.1,31.1,21.8,-000.0,0036.02,0021.26,0018.34
2022-10-07 09:48:00,,0837.3,5.02,0.00,29.3,27.7,00.0,38.1,31.1,21.9,-000.1,0036.04,0021.23,0018.34
2022-10-07 09:49:00,,0837.4,4.99,0.00,29.3,27.7,00.0,38.0,31.1,21.8,-000.5,0036.50,0021.26,0018.32
2022-10-07 09:50:00,,0837.4,5.01,0.00,29.3,27.6,00.0,38.0,31.1,21.8,-000.8,0035.98,0021.19,0018.30
2022-10-07 09:51:00,,0837.4,4.99,0.00,29.2,27.6,00.0,38.0,31.1,21.8,-001.0,0035.74,0021.18,0018.29
2022-10-07 09:52:00,,0837.4,5.02,0.00,29.2,27.6,00.0,38.0,31.1,21.8,-001.2,0036.03,0021.21,0018.28
2022-10-07 09:53:00,,0837.4,4.99,0.00,29.2,27.6,00.0,38.0,31.1,21.8,-001.5,0036.57,0021.21,0018.28
2022-10-07 09:54:00,,0837.4,5.01,0.00,29.2,27.5,00.0,38.0,31.1,21.8,-001.6,0037.07,0021.26,0018.24
2022-10-07 09:55:00,,0837.4,4.99,0.00,29.2,27.5,00.0,38.0,31.0,21.7,-001.6,0037.10,0021.24,0018.21
2022-10-07 09:56:00,,0837.4,5.01,0.00,29.2,27.5,00.0,38.0,31.0,21.7,-001.9,0036.51,0021.27,0018.25
2022-10-07 09:57:00,,0837.4,5.00,0.00,29.2,27.5,00.0,38.0,31.0,21.7,-002.2,0036.61,0021.43,0018.31
2022-10-07 09:58:00,,0837.4,4.99,0.00,29.2,27.5,00.0,38.0,31.0,21.7,-001.9,0036.96,0021.47,0018.35
2022-10-07 09:59:00,,0837.4,5.01,0.00,29.2,27.5,00.0,38.0,31.0,21.8,-001.8,0037.07,0021.44,0018.37
